Wind_Speed
3 3 5 6 6 6 6 6 6 6 6 6 6 7 6 6 6 6 6 6 7 7 8 8 8 8 8 8 9 9 9 9 9 9 9 10 11 11 12 12 12 12 12
2 3 4 5 6 6 6 7 7 7 7 7 7 7 7 7 7 7 7 8 8 9 9 8 9 9 9 9 9 9 9 9 9 10 11 11 12 12 12 12 12 12 13
2 2 3 4 4 5 6 8 8 8 8 7 7 7 7 7 8 8 9 9 9 10 9 9 9 9 9 9 9 10 10 11 11 11 12 12 12 12 12 13 13 13 13
1 2 3 3 4 5 6 7 7 7 7 7 7 7 7 8 9 9 9 10 11 10 10 10 10 10 10 11 11 11 11 11 12 12 13 13 13 13 13 14 14 14 14
2 1 2 2 3 3 4 5 5 6 6 7 8 8 9 10 10 10 10 11 11 11 11 11 11 11 12 12 12 12 13 13 13 13 13 14 14 14 14 14 14 14 14
3 3 1 2 3 3 4 4 5 6 6 7 7 8 9 10 10 10 10 11 11 11 11 11 12 12 12 12 12 13 13 13 13 14 14 14 14 15 15 14 14 14 14
3 3 2 3 3 4 4 5 6 6 7 6 7 8 9 10 10 10 10 11 11 12 12 12 11 12 13 13 13 14 15 14 14 14 15 15 15 15 16 16 15 15 15
3 2 2 3 4 5 6 6 7 8 8 9 8 8 9 10 11 11 10 11 11 11 12 13 13 13 14 13 14 14 15 15 15 15 15 16 16 16 16 15 15 15 15
3 3 3 4 4 5 6 7 8 9 9 10 9 10 10 10 10 11 11 11 12 13 13 14 14 14 14 14 14 15 16 16 16 16 16 16 17 17 16 15 16 16 16
3 4 5 5 5 5 6 8 9 9 10 10 11 11 11 11 11 11 12 12 13 14 14 14 14 14 15 15 15 15 15 16 16 17 17 17 17 17 17 17 16 17 17
4 5 6 6 6 6 7 9 10 10 10 10 11 12 13 13 12 12 12 13 13 13 13 14 13 14 15 15 15 15 16 17 17 18 18 17 17 17 17 17 16 16 17
6 6 6 7 7 8 9 10 10 11 11 12 12 12 13 13 13 13 13 13 13 13 13 13 13 14 15 15 16 16 17 17 17 18 18 18 18 18 19 18 17 17 18
7 7 7 8 8 9 10 10 11 11 12 13 12 12 12 12 12 12 12 12 12 13 13 13 13 14 14 15 16 16 17 17 18 18 18 19 19 20 20 20 19 18 18
9 9 9 9 10 11 11 11 11 12 12 12 13 12 12 12 12 12 12 12 12 12 12 13 14 15 15 16 16 16 17 18 18 19 19 19 19 20 20 20 20 19 19
10 10 11 11 11 12 12 12 12 12 13 13 13 13 13 12 12 13 12 12 13 12 13 15 16 17 17 18 17 18 18 19 20 20 20 20 20 20 21 20 21 21 21
11 12 12 13 13 13 13 13 12 13 13 12 13 13 13 13 13 14 14 14 15 15 14 15 16 18 18 18 18 19 19 19 20 19 18 19 20 20 20 20 21 21 21
12 13 14 14 14 14 14 13 12 13 13 13 13 14 13 14 13 14 14 15 16 16 16 16 17 18 18 18 18 19 19 20 19 19 18 18 18 18 19 19 19 19 19
14 14 15 15 15 15 14 14 14 14 14 14 14 14 14 15 15 15 15 15 16 16 17 18 18 20 20 19 19 19 20 20 19 19 19 19 19 19 18 19 19 20 20
15 15 15 16 16 15 15 16 16 16 16 16 16 15 15 16 16 16 16 16 16 17 18 19 20 20 21 21 21 21 21 21 21 20 20 19 19 19 19 19 19 19 19
17 17 17 17 17 17 16 17 17 17 18 18 18 17 17 17 17 18 18 18 18 19 20 20 21 21 22 22 23 22 22 21 21 21 21 21 21 20 21 20 20 20 20
19 19 19 19 18 18 18 19 19 19 19 20 20 20 19 19 19 19 20 20 21 21 21 21 22 22 22 23 23 23 22 22 22 22 23 23 22 22 22 22 21 22 22
20 20 20 20 19 20 20 20 21 21 21 21 21 22 21 21 21 21 22 22 22 22 22 23 23 23 24 24 24 24 24 24 24 24 24 24 23 23 23 23 23 23 23
22 22 22 21 21 21 22 22 22 23 23 22 23 22 22 24 24 24 24 24 24 25 25 25 25 25 25 25 25 25 26 26 25 25 25 24 24 24 24 24 24 24 24
23 24 24 23 23 23 23 23 24 24 25 25 25 24 25 25 26 26 26 26 27 27 27 27 27 27 27 27 27 27 27 27 27 26 26 25 25 25 25 26 26 25 25
24 25 25 25 24 24 24 25 25 26 26 26 26 26 26 27 28 29 29 28 28 29 28 28 27 28 28 29 28 28 28 27 28 28 27 27 26 27 27 27 27 27 27
25 25 25 25 26 25 25 26 26 26 27 27 27 27 28 29 29 29 29 29 29 30 29 29 29 29 30 30 30 30 30 29 29 29 30 29 29 29 29 29 28 29 29
Wind_Direction
164 184 198 205 211 221 226 226 231 232 233 242 246 248 256 262 266 270 263 259 263 263 263 265 270 278 283 283 280 276 268 267 267 268 272 275 273 274 276 275 274 273 268
166 200 214 217 223 229 232 237 241 239 245 250 253 252 255 260 269 266 266 262 261 262 261 264 273 280 282 284 282 274 269 268 269 270 275 275 275 277 277 276 274 272 269
179 212 220 224 227 227 234 243 243 247 252 254 253 256 261 263 274 273 272 272 269 266 267 269 272 272 276 280 281 276 273 275 272 273 277 276 274 274 276 278 276 274 272
186 232 226 225 234 240 246 249 250 246 253 256 259 263 267 270 275 276 277 279 275 271 271 273 274 274 273 275 277 276 277 280 277 274 276 277 275 274 276 277 276 273 270
16 318 257 242 248 255 258 258 253 249 255 262 268 270 273 272 275 276 279 281 282 279 278 278 276 275 273 273 272 273 276 277 277 277 275 277 278 278 277 275 273 272 270
9 2 299 253 257 268 279 278 275 273 272 275 277 277 277 276 278 278 282 284 285 282 282 282 280 278 274 270 269 273 276 276 277 279 280 280 281 282 281 279 276 273 273
7 358 331 293 281 284 288 290 287 287 288 284 283 282 281 278 277 278 280 285 285 283 283 287 288 286 282 276 276 279 279 278 278 279 282 282 283 282 282 279 275 274 272
1 345 326 315 306 293 286 290 292 287 286 289 290 291 286 283 281 279 281 284 286 286 285 286 288 290 292 286 286 286 285 284 284 280 280 280 283 281 282 277 276 275 273
351 343 329 318 311 303 294 294 296 293 287 285 288 292 292 292 288 282 280 283 288 288 287 286 287 289 290 290 288 287 286 284 284 282 281 282 282 281 283 280 277 275 273
351 340 326 323 317 310 305 303 300 298 293 287 286 289 289 289 290 283 282 283 285 286 287 285 285 287 291 292 288 288 288 287 285 284 284 283 282 282 283 283 278 276 273
336 331 332 323 319 314 313 309 306 303 299 296 295 295 292 290 291 286 282 282 283 287 286 287 287 287 290 289 288 289 293 291 287 286 285 283 283 283 283 283 278 274 271
331 323 323 324 322 318 316 311 307 303 300 300 298 298 295 294 292 287 285 284 284 285 287 288 287 290 291 288 288 290 292 291 289 289 287 284 282 281 281 282 277 273 272
331 324 321 318 317 317 316 311 308 306 304 304 300 300 297 297 295 291 285 287 285 285 286 288 289 292 292 291 291 290 292 294 294 292 289 285 284 283 283 281 277 273 273
320 318 315 313 311 312 312 310 306 305 305 305 304 303 300 298 295 295 296 291 287 286 287 291 290 292 291 292 294 293 294 296 296 293 290 288 287 285 284 282 279 275 277
314 314 314 313 311 311 310 309 305 304 305 305 304 303 300 298 296 298 299 296 294 293 292 295 293 293 293 293 293 294 296 294 295 294 290 290 289 287 285 282 281 277 276
309 311 311 310 310 310 310 306 303 303 302 304 308 309 303 300 297 297 297 298 298 298 295 293 294 294 294 294 293 294 295 295 296 296 294 293 293 292 291 285 284 281 276
302 306 308 309 308 307 306 306 303 305 302 301 303 304 305 303 301 300 299 298 297 296 296 296 294 296 296 295 294 293 294 295 295 297 297 297 298 296 293 291 289 284 278
294 298 302 304 306 306 305 304 305 306 304 303 304 302 302 303 301 299 297 297 296 297 296 296 296 295 295 294 294 294 296 295 295 296 296 296 296 296 295 295 290 284 280
294 296 299 301 302 302 303 305 304 303 303 305 307 305 301 301 301 299 297 297 297 296 296 295 296 295 295 294 294 294 294 294 294 294 293 292 294 294 293 293 291 286 281
292 294 295 296 297 297 299 301 302 302 300 301 302 300 298 298 298 298 297 298 297 297 297 296 294 294 294 296 294 292 292 292 293 293 292 290 290 291 291 292 292 288 284
291 291 292 292 293 294 297 299 299 300 299 297 296 296 295 295 295 295 296 297 297 298 298 296 295 295 295 294 295 292 292 291 291 291 292 290 288 288 288 289 290 290 287
290 290 290 291 293 294 296 296 296 298 297 296 295 294 294 294 293 292 292 294 294 296 298 298 296 296 296 295 295 294 292 290 290 289 290 288 287 286 287 287 288 289 287
289 290 290 290 291 293 293 293 293 294 294 294 294 294 293 293 291 289 290 291 292 293 294 296 295 294 294 294 294 295 294 291 288 287 287 286 284 285 285 285 285 286 286
288 288 289 289 289 289 289 291 292 292 292 292 292 292 292 291 289 290 290 290 290 291 292 293 293 294 294 293 294 293 292 292 292 288 285 285 283 283 284 285 285 285 286
286 286 287 288 287 287 287 288 289 290 291 291 290 291 292 291 290 289 289 290 290 290 290 292 292 293 293 292 292 292 291 290 290 290 287 284 283 282 283 284 283 284 284
285 285 285 285 286 285 284 286 287 288 289 289 289 290 291 291 290 289 289 288 288 289 289 290 292 293 292 292 290 290 291 290 288 287 286 284 283 282 282 282 282 282 283
Height
5884 5885 5885 5885 5886 5886 5886 5887 5887 5888 5888 5888 5888 5888 5888 5887 5887 5887 5887 5887 5887 5887 5887 5887 5887 5886 5886 5886 5885 5885 5885 5885 5885 5885 5884 5884 5884 5883 5883 5882 5882 5881 5881
5884 5884 5884 5885 5885 5885 5886 5886 5886 5886 5887 5886 5887 5886 5886 5886 5886 5886 5886 5886 5885 5885 5885 5885 5885 5885 5884 5884 5884 5883 5883 5883 5883 5882 5882 5882 5881 5881 5880 5879 5879 5879 5878
5884 5884 5884 5884 5884 5884 5885 5885 5885 5885 5885 5885 5885 5885 5885 5885 5884 5885 5884 5884 5883 5883 5883 5883 5883 5883 5883 5882 5882 5881 5881 5881 5881 5880 5880 5879 5878 5878 5877 5876 5876 5875 5875
5884 5884 5884 5884 5884 5883 5883 5884 5883 5883 5884 5884 5884 5883 5883 5883 5883 5883 5882 5882 5881 5881 5881 5881 5881 5881 5880 5880 5880 5879 5879 5878 5878 5877 5877 5876 5875 5875 5874 5873 5872 5872 5871
5883 5883 5883 5883 5883 5883 5882 5882 5882 5882 5882 5882 5882 5882 5882 5881 5881 5881 5880 5880 5879 5879 5879 5878 5878 5878 5878 5877 5877 5877 5876 5876 5875 5874 5874 5873 5872 5871 5870 5869 5869 5868 5868
5883 5883 5882 5882 5882 5882 5882 5882 5882 5881 5881 5881 5880 5880 5880 5879 5879 5878 5878 5878 5877 5877 5876 5875 5875 5875 5874 5874 5874 5874 5873 5873 5872 5871 5870 5869 5868 5867 5866 5866 5865 5864 5864
5883 5883 5882 5882 5882 5881 5881 5881 5881 5880 5880 5879 5879 5878 5878 5877 5877 5876 5876 5875 5875 5874 5874 5873 5873 5872 5872 5871 5871 5870 5870 5869 5868 5868 5867 5866 5865 5864 5863 5862 5861 5860 5860
5883 5883 5882 5882 5881 5881 5880 5880 5880 5879 5878 5878 5877 5876 5876 5876 5875 5874 5873 5873 5872 5872 5871 5871 5870 5870 5869 5868 5867 5867 5866 5866 5865 5864 5863 5862 5861 5860 5859 5857 5857 5857 5856
5883 5882 5882 5881 5880 5880 5879 5879 5878 5877 5877 5876 5875 5875 5874 5873 5873 5872 5871 5871 5870 5869 5868 5868 5867 5866 5866 5865 5864 5864 5863 5862 5861 5860 5859 5858 5857 5856 5855 5854 5853 5853 5853
5882 5881 5881 5880 5879 5879 5878 5877 5876 5876 5875 5874 5873 5872 5872 5871 5870 5870 5869 5868 5867 5866 5866 5865 5865 5864 5863 5862 5861 5860 5859 5858 5857 5856 5855 5854 5853 5852 5851 5849 5849 5848 5848
5881 5881 5880 5879 5878 5877 5877 5876 5874 5874 5873 5872 5871 5870 5869 5867 5867 5866 5866 5865 5864 5863 5863 5862 5861 5861 5860 5859 5858 5857 5856 5854 5853 5852 5851 5849 5848 5847 5846 5845 5844 5844 5844
5881 5880 5879 5878 5877 5876 5875 5874 5872 5871 5870 5869 5868 5867 5866 5865 5864 5863 5863 5862 5861 5860 5860 5859 5858 5857 5856 5855 5854 5853 5851 5850 5849 5847 5846 5845 5844 5843 5842 5841 5840 5839 5839
5880 5879 5878 5877 5876 5874 5873 5872 5870 5869 5868 5866 5865 5864 5863 5862 5861 5860 5860 5859 5858 5857 5856 5855 5854 5853 5852 5851 5850 5848 5847 5846 5844 5843 5841 5840 5839 5838 5837 5836 5835 5834 5834
5879 5877 5876 5875 5874 5872 5871 5869 5868 5867 5865 5864 5862 5861 5860 5859 5858 5857 5857 5856 5855 5854 5853 5852 5851 5850 5848 5847 5846 5844 5843 5841 5839 5838 5836 5835 5834 5832 5831 5830 5830 5829 5829
5877 5876 5874 5873 5872 5870 5869 5867 5865 5864 5863 5861 5860 5858 5857 5856 5855 5854 5853 5852 5852 5851 5850 5848 5847 5846 5844 5843 5842 5840 5838 5837 5835 5833 5831 5829 5828 5827 5826 5824 5824 5823 5823
5875 5873 5872 5871 5869 5868 5866 5864 5863 5861 5860 5859 5857 5855 5854 5853 5852 5851 5850 5849 5848 5847 5846 5845 5843 5842 5840 5839 5837 5835 5834 5832 5830 5827 5825 5824 5823 5821 5820 5819 5818 5817 5817
5872 5870 5869 5868 5866 5865 5863 5861 5860 5858 5857 5856 5854 5853 5851 5850 5849 5848 5846 5845 5844 5842 5841 5840 5839 5837 5835 5834 5832 5830 5829 5827 5824 5822 5821 5819 5818 5816 5815 5813 5812 5811 5811
5868 5867 5866 5865 5863 5862 5860 5859 5857 5856 5854 5852 5851 5849 5848 5847 5845 5844 5843 5841 5840 5838 5837 5836 5834 5833 5831 5829 5827 5825 5823 5821 5819 5817 5816 5814 5813 5811 5810 5808 5807 5806 5805
5865 5864 5862 5861 5860 5858 5857 5855 5854 5852 5851 5849 5848 5846 5845 5843 5842 5840 5839 5837 5836 5834 5832 5831 5829 5827 5825 5823 5821 5819 5817 5815 5814 5812 5810 5809 5807 5806 5804 5803 5802 5800 5799
5861 5860 5858 5857 5856 5855 5853 5852 5850 5849 5847 5846 5844 5843 5841 5839 5838 5836 5834 5833 5831 5829 5827 5825 5823 5821 5819 5817 5815 5813 5811 5809 5808 5807 5805 5804 5802 5801 5799 5798 5796 5795 5794
5856 5855 5854 5852 5851 5850 5849 5848 5846 5845 5843 5841 5840 5838 5836 5835 5833 5831 5829 5828 5826 5824 5822 5820 5818 5816 5813 5811 5809 5807 5806 5804 5802 5801 5799 5798 5796 5795 5793 5792 5791 5789 5788
5851 5850 5849 5848 5847 5845 5844 5842 5841 5839 5838 5836 5835 5833 5831 5829 5827 5826 5824 5822 5820 5818 5816 5814 5812 5809 5807 5805 5803 5801 5799 5798 5796 5795 5793 5791 5790 5789 5787 5786 5784 5783 5782
5846 5844 5843 5842 5841 5839 5838 5836 5835 5834 5832 5830 5828 5827 5825 5823 5821 5820 5818 5816 5814 5811 5810 5808 5805 5803 5801 5799 5797 5795 5792 5790 5789 5788 5786 5784 5783 5782 5781 5779 5778 5776 5775
5840 5838 5837 5835 5834 5833 5832 5830 5829 5827 5825 5824 5822 5820 5818 5816 5814 5812 5810 5808 5806 5804 5802 5800 5798 5795 5793 5791 5789 5787 5785 5783 5781 5780 5778 5777 5776 5775 5774 5772 5771 5769 5768
5833 5832 5831 5829 5828 5827 5825 5824 5822 5821 5819 5817 5815 5813 5811 5809 5807 5805 5803 5801 5799 5796 5794 5792 5790 5788 5785 5783 5781 5779 5777 5775 5774 5772 5770 5769 5768 5767 5766 5764 5763 5762 5760
5826 5824 5823 5822 5821 5820 5819 5817 5815 5814 5812 5810 5808 5806 5804 5801 5799 5796 5795 5793 5790 5788 5786 5784 5782 5780 5777 5775 5773 5771 5769 5767 5765 5764 5762 5761 5759 5758 5758 5756 5755 5753 5752